sat.trackr.live / text

‹ back to catalog

UNKNOWN

NORAD 82783

UNKNOWN UNKNOWN UNKNOWN

§ Identity

Operator
Country
Launch date
Launch site
Launch vehicle
Mass (kg)
RCS (m²)

External: N2YO · Heavens-Above

§ Orbital elements

Epoch: 2026-07-05T13:02:24.725472Z

Period
109.98 min
Inclination
90.3472°
Eccentricity
0.0020441
Mean motion
13.09299093 rev/d
Perigee alt
1,210.3 km
Apogee alt
1,241.4 km
Semi-major
7,604.0 km
B*
9.0858e-4
RAAN
44.7859°
Arg perigee
287.0382°
Mean anomaly
72.8506°
Rev number
53,115

§ Raw data

UNKNOWN1 82783U          26186.54334173  .00000320  00000+0  90858-3 0  99982 82783  90.3472  44.7859 0020441 287.0382  72.8506 13.09299093531151

JSON: /api/v1/satellites/82783 · /tle

For live sub-satellite position, see the globe view (requires WebGL).

§ Visibility from observer

Set your observer location to see the next 7 days of passes ≥ 10°. The values pass through the URL so the page stays shareable.

No JS? Fill the form by hand. The geolocation button needs JavaScript.